Theta_e
333 327 316 310 300 296 291 295 299 301 302 307 311 310 309 312 309 303 324 333 339 340 344 345 347 347 345 343 343 341 340 341 342 341 343 341 340 339 338 338 339 338 337 337 339 338 337 336 336
327 324 312 303 295 290 291 296 300 302 307 315 314 313 311 307 320 322 326 336 341 342 343 344 344 346 343 342 342 342 341 340 342 341 344 341 340 338 337 338 337 337 337 335 337 337 336 336 336
324 315 307 298 293 291 293 300 302 306 308 307 310 315 312 312 319 324 329 337 340 340 342 342 343 345 342 341 341 342 342 342 342 342 343 342 340 338 337 337 337 336 336 335 334 335 335 335 335
318 313 306 297 294 295 299 302 304 305 304 310 311 309 314 323 324 326 334 337 337 339 340 341 344 345 343 342 341 341 339 342 341 344 341 344 341 339 338 337 336 335 335 335 333 334 335 334 334
315 309 300 294 294 296 301 305 305 302 303 304 310 307 311 323 327 332 333 335 334 336 338 340 343 344 343 342 340 340 340 340 340 342 341 343 342 339 337 336 335 335 334 334 333 332 332 332 333
309 308 299 292 293 298 301 304 305 302 303 305 310 309 312 323 326 328 331 332 336 336 338 339 336 339 341 341 341 341 340 339 340 341 340 341 342 340 338 336 335 334 333 333 332 331 330 330 331
306 303 299 297 294 298 302 305 302 303 301 302 314 308 311 318 324 327 330 332 334 336 337 337 337 336 335 337 338 339 339 338 338 339 339 338 336 337 337 338 337 334 333 332 331 330 328 327 328
307 304 298 298 297 297 301 304 303 302 302 307 315 307 308 320 326 325 329 330 331 333 334 334 335 335 334 333 332 334 335 336 335 334 332 330 331 332 331 330 335 336 333 332 331 329 328 327 325
310 299 297 300 299 300 303 303 305 307 308 312 315 313 315 325 326 322 320 323 327 331 331 332 334 333 332 332 330 329 331 331 331 330 327 324 323 324 324 325 328 334 336 334 332 330 329 328 325
305 297 300 303 303 301 303 303 303 304 307 308 313 317 321 324 323 320 318 320 322 327 329 330 331 334 332 334 330 328 329 327 327 326 324 323 322 322 323 320 325 330 330 334 333 332 330 324 315
305 299 304 305 306 306 304 303 304 304 302 308 310 316 320 319 320 321 318 319 323 325 326 329 330 331 334 335 328 326 326 325 324 323 322 321 321 319 320 319 320 320 320 322 327 326 323 318 315
300 305 305 308 308 307 304 305 303 302 304 307 311 321 321 319 321 321 320 317 317 320 324 327 329 330 332 334 333 331 327 324 323 322 321 319 318 317 317 317 317 318 318 317 317 318 320 318 317
299 300 304 307 307 307 307 304 303 305 307 313 319 321 320 320 320 322 322 320 317 318 320 322 327 329 330 332 332 331 330 328 326 324 322 320 317 316 316 316 316 316 316 315 314 314 314 314 314
298 300 300 303 304 307 304 303 306 307 307 311 319 318 320 321 321 319 319 321 319 319 320 321 323 328 329 330 332 330 330 329 327 325 324 322 320 318 316 316 316 315 315 315 314 313 313 313 313
302 296 299 300 301 303 306 302 303 307 308 306 314 316 318 320 320 320 321 321 322 322 320 320 321 324 326 328 330 331 331 330 328 327 324 323 322 319 318 317 316 316 314 314 313 312 313 313 314
297 295 290 296 301 303 303 292 299 307 306 306 307 306 312 317 319 321 322 322 322 322 320 320 323 321 323 327 328 329 329 329 328 327 325 324 324 321 318 318 317 317 314 313 312 312 312 312 312
293 286 289 293 299 299 300 294 299 303 305 304 303 303 306 307 309 318 321 322 323 323 321 319 321 322 321 323 326 327 326 327 327 327 325 323 324 323 321 319 319 315 315 314 314 313 312 311 312
287 288 289 290 293 295 295 297 301 300 300 301 301 300 300 301 305 309 313 322 323 323 322 319 320 321 321 321 321 322 323 325 326 327 326 324 324 323 320 320 318 315 313 312 310 312 310 312 312
292 289 287 289 294 292 291 292 297 300 299 299 298 298 299 300 304 306 310 310 314 319 319 317 317 319 320 317 316 318 320 323 321 323 325 325 325 323 322 322 318 315 315 315 312 312 310 311 309
292 290 287 291 294 292 291 291 294 296 297 301 302 301 300 300 302 304 306 307 310 314 319 318 317 318 319 319 319 317 318 318 321 321 321 324 324 323 323 321 321 317 316 314 313 312 311 310 309
291 288 288 288 292 292 290 290 291 297 297 299 300 302 302 302 303 302 303 304 304 307 312 318 318 318 319 319 316 316 316 315 315 317 319 321 322 322 322 322 321 320 318 318 315 314 312 312 309
290 293 292 290 289 283 289 281 286 291 292 296 299 300 302 304 305 305 304 302 302 303 305 311 318 318 318 318 317 316 317 315 316 317 318 319 320 321 321 321 321 321 319 318 318 316 315 313 312
292 296 293 292 287 284 284 283 285 288 290 292 295 297 299 301 303 303 303 303 303 307 308 308 310 317 319 318 319 317 316 317 317 317 316 317 318 320 321 320 320 320 320 320 318 318 315 316 314
296 293 292 289 289 283 286 285 282 287 291 292 293 296 297 297 299 301 302 305 303 301 301 304 306 308 317 318 318 317 316 317 317 317 316 316 317 318 320 320 320 320 320 319 319 318 318 317 316
295 290 280 281 281 279 283 284 287 289 291 293 294 294 295 295 297 299 301 299 299 300 300 301 301 300 303 310 316 317 317 317 317 317 317 317 316 315 318 319 320 320 320 320 321 320 319 318 318
293 291 280 274 276 278 283 280 284 291 294 294 295 295 295 295 297 298 300 297 297 298 298 299 299 299 299 300 300 300 301 302 303 305 306 309 312 316 318 318 318 320 321 322 321 320 320 320 319
292 288 289 280 271 274 279 282 287 290 290 291 293 293 294 296 297 297 296 296 297 297 297 297 298 298 299 300 300 299 299 300 300 301 302 302 304 305 306 307 310 315 318 320 321 320 320 320 319
294 295 285 280 271 269 277 278 281 285 289 290 291 294 295 294 295 295 296 296 296 296 297 297 298 298 299 299 299 298 298 299 299 300 299 300 301 302 303 305 306 308 310 316 318 320 321 320 320
291 290 289 288 281 275 273 278 285 289 290 291 291 293 294 294 294 295 296 296 296 295 296 297 298 298 298 297 297 297 297 297 298 298 298 298 299 300 300 302 303 304 305 307 309 314 318 318 319
294 290 291 284 280 282 279 281 287 289 289 290 291 292 293 295 294 294 293 293 293 294 294 295 296 297 297 295 295 294 295 295 295 295 296 297 296 297 298 298 299 300 301 302 304 305 308 311 314
Wind_Speed
11 6 2 6 6 7 1 1 3 3 3 2 3 4 6 3 3 3 1 7 11 9 7 8 13 14 13 13 11 11 12 11 12 10 12 14 12 11 12 11 14 12 14 13 14 14 15 13 12
8 2 5 3 7 4 4 3 4 1 4 7 6 3 5 1 2 3 6 7 12 10 8 7 11 13 14 13 11 10 11 11 11 10 12 13 13 12 12 11 10 11 12 12 12 13 13 11 11
5 4 4 6 4 5 5 4 4 3 6 2 4 4 2 2 2 7 2 10 8 8 8 9 12 12 13 12 12 11 10 11 11 10 8 14 14 12 11 10 10 10 10 11 11 11 11 10 10
4 5 5 6 3 2 7 6 3 4 1 5 4 5 2 1 6 5 9 8 6 6 6 8 12 12 13 12 11 10 10 10 8 12 7 13 14 12 12 11 9 9 9 9 10 9 8 9 9
5 4 5 4 3 1 1 5 7 4 2 2 2 3 2 3 2 10 11 8 7 5 4 5 9 10 11 12 12 11 9 8 5 10 6 12 14 12 11 10 9 8 8 8 7 7 6 7 8
5 3 5 2 2 1 0 3 6 5 3 3 5 4 3 3 6 6 8 8 9 9 6 5 8 10 10 10 9 9 8 6 4 5 7 8 13 13 11 10 9 7 6 6 5 5 4 5 7
5 4 2 1 0 0 4 6 4 6 5 3 9 5 3 2 5 7 7 6 6 7 7 5 6 7 9 9 9 10 9 6 4 2 3 6 6 6 7 11 10 9 7 5 4 3 2 2 4
5 4 2 0 2 2 1 3 4 4 2 3 2 4 4 5 8 6 6 5 6 6 6 6 5 5 5 5 7 7 8 9 6 4 3 0 3 4 5 2 7 9 8 7 6 4 3 2 1
3 5 1 1 3 2 2 3 1 1 5 2 1 3 3 9 9 7 4 2 3 4 5 5 6 5 5 5 5 6 6 6 6 4 3 1 1 2 4 3 4 2 9 8 6 6 5 3 3
4 4 8 3 2 2 1 1 2 3 2 1 1 2 3 9 9 9 8 8 5 9 6 6 6 7 5 4 5 5 4 4 4 3 3 2 1 1 2 2 4 6 4 7 7 6 5 3 2
2 5 4 3 2 2 2 2 1 6 3 5 6 6 5 5 7 9 8 8 12 8 5 8 8 7 10 8 3 2 2 3 3 5 4 3 1 1 2 2 2 2 3 2 3 3 2 3 3
3 3 4 3 1 1 3 1 3 1 4 0 7 9 8 9 13 13 11 9 7 7 9 8 8 8 9 8 6 6 4 4 4 5 6 4 3 3 3 2 3 3 2 4 3 3 4 5 5
4 2 2 2 1 1 1 1 2 5 6 4 8 10 11 10 10 10 8 6 7 10 9 9 9 9 8 10 9 9 9 7 7 6 6 5 4 4 3 4 3 4 3 3 4 4 4 5 5
4 4 2 3 3 2 2 3 1 3 3 5 8 11 11 12 15 7 7 11 11 12 13 11 11 11 10 10 13 10 9 9 6 6 6 8 5 5 5 4 5 4 4 4 4 4 4 5 4
3 3 4 4 3 4 4 7 9 6 2 4 8 7 8 12 7 14 16 16 15 13 11 12 12 11 11 12 11 9 9 9 9 7 7 8 8 7 7 5 5 6 4 5 4 5 4 4 4
4 4 3 3 6 4 8 11 6 10 5 9 9 8 8 10 13 11 11 13 12 10 12 11 10 11 12 12 10 8 7 7 6 6 6 9 9 9 7 6 7 5 5 5 4 5 5 6 5
4 4 4 6 9 4 7 9 4 9 9 10 9 9 8 9 9 11 12 14 13 13 12 12 13 14 14 12 9 8 7 7 6 6 6 7 9 8 7 6 6 5 4 5 5 5 5 4 5
5 3 5 7 4 5 5 11 10 2 7 12 9 9 7 8 12 9 13 15 13 11 12 12 11 14 12 7 5 4 4 6 6 7 6 7 7 8 7 6 6 5 4 4 4 6 4 6 6
5 4 5 3 5 3 7 9 16 8 6 9 10 9 9 10 10 9 9 10 9 8 11 14 13 14 8 5 4 5 8 7 4 6 7 9 9 9 9 8 6 6 8 9 7 5 6 7 3
4 5 5 4 4 4 7 9 12 10 8 13 16 12 11 7 8 11 8 6 7 9 13 11 13 11 11 9 6 4 4 4 4 5 7 10 9 9 9 10 9 8 7 7 8 9 6 5 6
5 7 4 4 4 1 5 12 8 11 8 8 10 11 9 13 14 9 9 7 6 7 9 11 13 12 11 10 4 3 2 1 2 4 5 9 10 9 11 11 10 9 9 9 10 9 12 10 5
15 7 4 1 2 5 2 11 7 6 9 9 11 13 17 16 14 11 10 7 8 9 5 8 8 9 10 10 8 8 8 7 6 4 4 5 9 11 11 12 11 10 8 10 11 8 11 9 12
7 8 8 4 2 4 3 5 5 2 9 7 12 15 13 12 11 11 9 8 5 4 3 4 5 5 4 8 8 7 5 4 1 2 4 5 5 9 9 11 10 11 9 11 11 11 10 11 11
7 6 5 4 3 9 9 8 5 7 9 8 5 8 9 9 10 9 5 6 6 5 5 7 8 4 5 6 6 8 8 6 3 4 4 4 4 4 8 9 9 10 10 11 11 12 13 12 12
6 9 2 3 6 11 4 9 18 5 9 9 9 10 9 9 7 7 9 7 7 8 7 7 7 6 6 7 5 5 5 5 5 5 3 4 3 3 6 7 9 9 10 12 11 12 12 13 12
19 14 7 9 7 4 4 12 9 8 9 8 10 8 7 4 3 7 8 8 8 8 7 8 8 7 6 7 7 5 5 3 1 1 2 3 3 4 4 5 6 9 11 11 12 10 11 13 12
11 17 8 6 4 3 7 8 9 10 9 9 11 3 7 7 7 7 7 7 8 7 8 8 8 7 7 7 6 6 5 5 3 3 2 1 3 4 6 6 6 6 7 10 11 10 12 13 13
14 12 7 2 5 6 5 6 9 2 9 6 5 7 7 4 5 7 7 8 6 6 6 7 7 8 7 7 6 5 5 5 4 4 4 4 4 5 6 6 6 7 7 7 9 10 11 12 11
8 15 5 5 6 6 2 9 9 16 13 10 8 7 7 8 8 7 7 6 6 6 6 7 7 8 7 6 6 6 5 4 4 3 2 3 4 5 5 6 6 7 8 9 9 10 12 15 15
21 9 17 10 15 9 0 11 4 6 7 6 8 10 9 10 9 8 8 7 7 7 6 7 7 7 7 6 6 5 4 3 3 2 3 4 4 4 5 5 5 6 7 8 9 11 11 12 14
Wind_Direction
317 329 88 43 59 64 329 250 299 126 134 329 97 151 157 83 157 203 273 157 139 148 147 145 135 135 134 132 128 126 125 128 125 126 128 118 115 106 107 103 96 99 98 100 100 101 93 84 74
312 32 43 83 84 82 268 269 173 204 135 131 87 74 37 89 121 106 117 172 153 148 145 140 141 141 142 139 135 133 133 138 137 136 127 127 125 122 115 107 104 101 102 106 111 111 102 87 75
320 59 78 87 104 154 182 205 203 111 161 191 93 65 135 187 3 155 224 151 147 143 142 147 145 145 145 145 140 139 139 148 150 142 138 136 130 129 122 118 113 109 107 105 111 114 105 90 79
2 12 33 75 109 208 170 179 205 134 67 53 114 65 343 276 159 192 137 133 130 126 127 149 148 150 151 147 145 140 146 149 160 148 147 155 135 134 131 125 119 117 115 113 117 119 105 82 69
30 58 46 78 344 110 169 168 162 136 123 97 130 173 334 19 35 133 132 134 129 108 115 147 150 153 154 156 151 152 155 160 180 139 157 137 139 140 139 136 131 130 125 119 120 123 114 97 80
30 80 54 51 319 33 98 193 158 139 154 159 76 112 199 348 130 158 140 148 153 149 153 162 159 156 159 160 157 157 159 161 175 159 161 143 145 150 144 143 141 142 137 134 131 126 117 98 86
95 65 152 127 258 203 193 143 177 160 151 217 152 130 272 292 157 146 136 129 148 150 151 160 167 166 166 166 163 162 163 167 186 193 249 171 156 140 152 155 155 154 155 152 150 153 151 132 119
97 86 72 16 183 238 129 140 137 137 153 91 169 185 224 202 143 124 117 136 150 149 155 163 167 166 169 172 167 169 168 174 189 205 208 157 149 139 153 221 165 163 166 173 175 189 205 224 210
115 62 168 248 150 233 308 166 163 60 114 83 26 164 314 134 128 115 115 115 148 175 172 167 172 174 168 171 184 175 177 180 191 209 227 201 101 140 184 186 269 242 174 183 194 209 220 235 274
96 120 209 191 188 205 245 139 157 130 121 61 346 12 68 130 153 151 166 180 191 196 195 186 177 182 165 172 166 185 176 185 190 196 212 214 240 282 214 223 245 263 274 187 207 228 235 253 290
172 178 201 233 224 213 157 107 247 141 216 198 197 173 151 148 178 174 188 188 198 197 196 194 186 180 186 194 171 183 179 180 189 198 205 206 204 259 277 281 281 287 280 301 283 270 261 264 266
155 246 187 208 244 247 150 22 111 245 220 195 212 160 163 176 191 195 198 199 186 198 205 195 193 185 190 199 194 192 191 189 189 197 197 187 206 217 225 229 243 238 237 245 254 261 264 264 264
161 228 197 186 164 353 65 235 238 252 234 64 118 150 178 190 207 213 209 201 194 207 208 204 191 193 195 199 206 211 209 205 198 195 195 183 195 204 207 225 223 225 224 228 240 250 261 269 268
176 217 157 231 240 266 205 268 153 261 226 138 162 182 189 196 207 205 208 216 210 211 211 201 201 200 192 201 208 211 212 213 203 202 203 197 196 197 200 214 221 226 212 215 221 229 241 251 250
124 145 331 212 203 230 135 284 230 231 134 176 206 210 214 220 198 214 217 218 216 218 212 207 202 199 200 205 206 209 211 211 210 206 199 200 201 202 204 211 221 226 215 224 226 237 238 250 251
120 77 149 263 169 234 131 258 247 240 218 228 236 232 228 233 222 226 225 228 220 219 209 208 207 200 205 208 203 207 206 206 207 204 201 206 206 201 204 211 220 212 206 210 214 227 241 241 235
357 181 184 302 203 158 180 263 258 217 198 238 225 229 239 258 235 229 220 225 220 214 212 208 203 209 206 208 204 205 194 208 204 202 202 206 215 207 212 222 231 205 216 219 222 239 227 240 246
174 188 213 202 238 207 223 258 265 262 213 239 244 257 238 238 254 240 223 224 222 211 206 210 205 212 210 200 193 199 196 209 203 208 206 197 214 208 203 217 221 195 208 227 216 237 222 239 247
151 185 184 214 258 208 240 257 267 244 239 258 249 249 259 252 251 243 241 218 216 205 197 200 200 210 185 178 177 215 223 219 212 209 208 208 213 205 206 224 212 196 214 225 206 215 223 252 192
175 191 219 274 259 174 280 256 255 247 220 226 241 248 240 247 263 264 253 233 211 213 211 207 210 199 196 198 203 186 178 212 207 185 203 215 214 211 214 222 226 211 221 223 213 208 233 239 173
205 193 164 205 346 324 321 271 228 262 212 228 237 240 245 236 249 251 262 230 226 226 210 204 209 201 199 193 129 105 90 79 139 208 210 216 215 213 215 220 226 218 213 233 226 218 219 243 216
226 146 158 181 80 243 19 282 258 242 252 227 229 228 239 245 247 252 249 237 214 230 225 217 203 192 193 173 181 183 201 207 211 200 209 208 203 219 220 227 229 229 222 232 234 219 223 224 245
219 153 174 146 125 2 212 291 255 286 263 255 239 230 237 240 236 243 243 227 193 132 148 222 209 207 185 182 188 191 199 217 171 207 221 225 218 223 226 227 231 234 231 238 237 235 216 225 233
135 83 64 62 86 257 226 196 218 204 218 246 270 253 255 241 226 233 217 154 127 111 99 94 100 82 156 163 166 176 188 207 218 237 235 249 230 229 232 234 232 236 237 237 238 238 236 230 236
166 130 121 206 210 240 351 197 253 270 272 236 257 267 284 273 219 185 153 136 129 125 119 111 108 94 96 119 153 176 199 206 226 255 243 258 258 240 249 228 239 240 242 243 242 242 238 234 236
198 177 162 189 203 227 130 233 253 233 264 266 248 249 287 315 178 156 151 145 140 134 126 122 119 109 98 96 92 84 86 98 80 347 343 324 312 301 295 267 250 251 252 248 244 244 245 242 239
186 215 164 104 15 73 213 289 295 259 260 240 254 272 244 208 174 161 156 150 142 147 143 140 130 117 111 112 106 87 81 80 76 47 45 340 318 311 315 311 300 279 264 261 258 252 249 243 243
181 168 175 182 170 244 254 266 235 181 238 255 220 231 228 193 172 163 166 167 171 155 147 142 134 129 124 113 106 98 89 77 70 65 38 6 339 336 329 321 314 309 303 283 265 265 261 255 252
165 200 197 173 170 189 254 254 214 209 204 220 220 219 214 204 193 185 192 187 168 157 154 138 132 131 125 121 118 114 109 99 94 86 46 8 341 339 333 325 319 318 315 310 301 288 280 271 270
208 185 201 208 212 239 203 259 167 201 229 208 232 215 213 209 198 201 192 178 178 178 164 160 153 146 147 139 128 123 119 102 83 48 12 355 338 323 316 314 313 313 314 310 306 300 294 287 284